Location: Unspecified
(0.0000°N, 0.0000°E)
Time: 23:25:00
(UTC+01:00)

Centaur D-1AR AC-41 - Visible Passes

Search period start: 13 December 2017 00:00
Search period end: 23 December 2017 00:00
Orbit: 663 x 36178 km, 21.5° (Epoch: 13 December)

Date Brightness Start Highest point End Pass type
(mag) Time Alt. Az. Time Alt. Az. Time Alt. Az.
13 Dec 6.7 01:17:23 10° WSW 01:56:50 34° SW 01:56:50 34° SW visible
13 Dec 7.0 13:25:01 10° WNW 16:30:07 87° NNW 23:32:16 25° SE visible
14 Dec 6.8 10:51:18 10° NW 18:02:26 76° SSE 21:00:41 10° ESE visible
16 Dec 3.4 05:48:42 25° WNW 05:50:17 37° NNW 05:54:58 10° NE visible
16 Dec 10.3 17:37:08 10° WNW 19:00:54 27° W 22:02:37 10° W visible
17 Dec 7.4 03:05:28 10° WSW 03:06:21 11° WSW 03:06:21 11° WSW visible
17 Dec 6.5 14:42:30 10° WNW 16:35:56 68° WNW 00:41:49 44° S visible
18 Dec 7.4 12:05:46 10° NW 16:57:14 85° SSE 22:17:09 10° ESE visible
19 Dec 6.2 09:33:24 10° NW 17:27:39 63° SE 19:38:59 10° ESE visible
21 Dec 5.0 04:35:05 17° ENE 04:35:05 17° ENE 04:36:02 10° ENE visible
21 Dec 6.9 16:04:41 10° WNW 17:43:39 44° W 22:45:39 10° WSW visible
22 Dec 6.7 13:21:26 10° WNW 15:42:44 85° NW 23:26:54 33° SE visible
